星链-31539 (STARLINK-31539 )

导读

STARLINK-31539是美国太空探索技术公司(SpaceX)于2024年4月18日发射的星链星座低轨通信卫星,运行于近地轨道。作为星链全球卫星互联网项目的一员,它依托低轨优势提供低延迟、高带宽网络服务,重点为偏远及基础设施薄弱地区填补网络覆盖空白,同时支持航海航空通信与应急场景,助力缩小全球数字鸿沟。

基本信息
目录编号:
59539
目录名称:
STARLINK-31539
国际标识:
2024-074F
轨道中心:
EARTH
卫星名称:
星链-31539
卫星全名:
星链-31539 (STARLINK-31539 )
卫星状态:
在轨 (已飞行790 天)
发射日期:
2024-04-18 UTC
国别 :
美国 (US)
星等 :
--
轨道信息
数据来源 国际轨道数据 AOE轨道数据
星历时间 2026-06-17T13:01:27+0800
9小时前
查看轨道信息
2026-06-16T01:00:00+0800
1天前
查看轨道信息
半长轴 6861.2km 6861.136km
偏心率 0.000197 0.0002038
轨道倾角 43.002° 43.001°
近地点辐角 272.347° 260.808°
升交点赤经 141.569° 150.048°
平近点角 87.715° 115.235°
近地点 481.711km 481.6km
远地点 484.415km 484.398km
周期 94.267分钟 94.266分钟
每日圈数 15.275756 15.27597
详细信息
固有亮度:
5
最大亮度:
1.5
卫星平台:
Starlink v2.0 mini
覆盖范围:
全球
运营商:
太空探索技术公司
运营商所在国:
美国
制造商(研发单位):
太空探索技术公司
制造商所在国:
美国
使用方式:
暂无
卫星简介
星链(Starlink)计划是由太空探索技术公司(SpaceX)提出的一个巨型低轨卫星互联网星座项目,计划在2019年至2024年间在太空搭建由约1.2万颗卫星组成的“星链”网络,其中1584颗将部署在地球上空550千米处的近地轨道,并从2020年开始工作。该卫星仍在工作。
2D轨道图
3D轨道图
轨道高度分析图
轨道倾角分析图
轨道综合分析图
查看轨道综合分析图